This is the latest recevied weather packets stored in our database for station/object OE6CUD-6. If no packets are shown the sender has not sent any weather packets the latest 10 day(s).
| Time | Temp. | Humidity | Pressure | Rain* | Wind** | Luminosity | Snow |
|---|---|---|---|---|---|---|---|
| 1777654684 | 18.89° C | 50% | 1024.7 hPa | 0 mm | - | 120 W/m² | - |
| 1777653482 | 19.44° C | 48% | 1024.8 hPa | 0 mm | - | 185 W/m² | - |
| 1777652565 | 19.44° C | 49% | 1024.7 hPa | 0 mm | - | 232 W/m² | - |
| 1777651353 | 19.44° C | 47% | 1024.8 hPa | 0 mm | - | 288 W/m² | - |
| 1777650151 | 20° C | 47% | 1024.9 hPa | 0 mm | - | 345 W/m² | - |
| 1777648050 | 20.56° C | 46% | 1025.2 hPa | 0 mm | - | 439 W/m² | - |
| 1777647451 | 20° C | 49% | 1025.2 hPa | 0 mm | - | 468 W/m² | - |
| 1777647444 | 20.56° C | 46% | 1025.3 hPa | 0 mm | - | 482 W/m² | - |
| 1777646253 | 21.11° C | 46% | 1025.7 hPa | 0 mm | - | 520 W/m² | - |
| 1777637827 | 20.56° C | 45% | 1027.2 hPa | 0 mm | - | 928 W/m² | - |
| 1777637087 | 19.44° C | 47% | 1027.1 hPa | 0 mm | - | 898 W/m² | - |
| 1777636303 | 18.89° C | 49% | 1027.1 hPa | 0 mm | - | 874 W/m² | - |
| 1777634637 | 18.89° C | 47% | 1027.3 hPa | 0 mm | - | 325 W/m² | - |
| 1777632373 | 17.78° C | 50% | 1027.5 hPa | 0 mm | - | 278 W/m² | - |
| 1777632234 | 17.78° C | 50% | 1027.7 hPa | 0 mm | - | 158 W/m² | - |
| 1777631773 | 18.89° C | 50% | 1027.8 hPa | 0 mm | - | 278 W/m² | - |
| 1777631468 | 18.33° C | 48% | 1027.8 hPa | 0 mm | - | 756 W/m² | - |
| 1777630264 | 19.44° C | 46% | 1028.1 hPa | 0 mm | - | 830 W/m² | - |
| 1777629361 | 18.33° C | 47% | 1028.1 hPa | 0 mm | - | 807 W/m² | - |
| 1777628912 | 18.33° C | 49% | 1028.2 hPa | 0 mm | - | 838 W/m² | - |
| 1777628448 | 17.78° C | 49% | 1028.2 hPa | 0 mm | - | 828 W/m² | - |
| 1777626930 | 16.11° C | 49% | 1028.2 hPa | 0 mm | - | 782 W/m² | - |
| 1777626194 | 16.11° C | 49% | 1028.2 hPa | 0 mm | - | 696 W/m² | - |
| 1777625732 | 16.67° C | 49% | 1028.3 hPa | 0 mm | - | 729 W/m² | - |
| 1777624533 | 15.56° C | 49% | 1028.3 hPa | 0 mm | - | 513 W/m² | - |
* Rain latest hour (hover to see other rain measurements)
** Current wind speed in m/s (hover to see current wind gust speed)